Weather History for Block Island, RI

Change the Weather History Date:

Monday, March 31, 2014

  Actual Average Record
Temperature  
Mean Temperature 37 °F -  
Max Temperature 39 °F 47 °F 70 °F (1986)
Min Temperature 35 °F 36 °F 22 °F (1964)
Degree Days  
Heating Degree Days 28    
Moisture  
Dew Point 31 °F    
Average Humidity 79    
Maximum Humidity 87    
Minimum Humidity 65    
Precipitation  
Precipitation 0.08 in - - ()
Sea Level Pressure  
Sea Level Pressure 29.80 in    
Wind  
Wind Speed 15 mph (North)    
Max Wind Speed 22 mph    
Max Gust Speed 31 mph    
Visibility 9 miles    
Events      
Averages and records for this station are not official NWS values.
T = Trace of Precipitation, MM = Missing Value Source: NWS Daily Summary

Daily Weather History Graph

Daily Weather History Graph

Search for Another Location

Airport:

Trip Planner

Search our weather history database for the weather conditions in past years. The results will help you decide how hot, cold, wet, or windy it might be!

Date:

Astronomy

Mar. 31, 2014 Rise Set
Actual Time 6:31 AM EDT 7:10 PM EDT
Civil Twilight 6:03 AM EDT 7:38 PM EDT
Nautical Twilight 5:30 AM EDT 8:10 PM EDT
Astronomical Twilight 4:56 AM EDT 8:44 PM EDT
Moon 6:52 AM EDT (3/31) 8:26 PM EDT (3/31)
Length of Visible Light 13h 34m
Length of Day
12h 39m
New Moon, 1% of the Moon is Illuminated
Mar 31
New Moon
Apr 7
First Quarter
Apr 15
Full
Apr 22
Last Quarter
Apr 29
New

Hourly Weather History & Observations

Time (EDT) Temp. Windchill Dew Point Humidity Pressure Visibility Wind Dir Wind Speed Gust Speed Precip Events Conditions
12:15 AM 37.4 °F 27.5 °F 32.0 °F 81% 29.63 in 10.0 mi NE 18.4 mph 28.8 mph N/A   Overcast
12:35 AM 37.4 °F 27.8 °F 32.0 °F 81% 29.64 in 10.0 mi NNE 17.3 mph 24.2 mph N/A   Overcast
12:55 AM 37.4 °F 26.9 °F 32.0 °F 81% 29.64 in 5.0 mi NNE 20.7 mph 27.6 mph N/A   Overcast
1:15 AM 37.4 °F 28.2 °F 32.0 °F 81% 29.64 in 9.0 mi NNE 16.1 mph 23.0 mph N/A   Overcast
1:35 AM 37.4 °F 27.5 °F 32.0 °F 81% 29.64 in 10.0 mi NNE 18.4 mph 25.3 mph N/A   Overcast
1:55 AM 37.4 °F 27.5 °F 32.0 °F 81% 29.65 in 10.0 mi NNE 18.4 mph 27.6 mph N/A   Overcast
2:15 AM 37.4 °F 26.9 °F 30.2 °F 75% 29.64 in 10.0 mi NNE 20.7 mph 28.8 mph N/A   Overcast
2:35 AM 37.4 °F 27.8 °F 30.2 °F 75% 29.64 in 9.0 mi NNE 17.3 mph 25.3 mph N/A   Overcast
2:55 AM 35.6 °F 24.2 °F 30.2 °F 81% 29.64 in 5.0 mi NNE 21.9 mph 27.6 mph N/A   Overcast
3:15 AM 35.6 °F 24.8 °F 30.2 °F 81% 29.63 in 8.0 mi NNE 19.6 mph 29.9 mph N/A   Overcast
3:35 AM 35.6 °F 25.9 °F 30.2 °F 81% 29.64 in 10.0 mi NNE 16.1 mph 31.1 mph N/A   Overcast
3:55 AM 35.6 °F 25.5 °F 30.2 °F 81% 29.65 in 9.0 mi NNE 17.3 mph 26.5 mph N/A   Overcast
4:15 AM 35.6 °F 25.9 °F 30.2 °F 81% 29.66 in 10.0 mi NNE 16.1 mph 24.2 mph N/A   Overcast
4:35 AM 35.6 °F 25.5 °F 30.2 °F 81% 29.66 in 6.0 mi NNE 17.3 mph 24.2 mph N/A   Overcast
4:55 AM 35.6 °F 25.2 °F 30.2 °F 81% 29.66 in 6.0 mi NNE 18.4 mph 25.3 mph N/A   Overcast
5:15 AM 35.6 °F 25.9 °F 30.2 °F 81% 29.66 in 8.0 mi NNE 16.1 mph 27.6 mph N/A   Overcast
5:35 AM 35.6 °F 25.5 °F 30.2 °F 81% 29.67 in 5.0 mi NNE 17.3 mph 26.5 mph N/A   Overcast
5:55 AM 35.6 °F 25.2 °F 30.2 °F 81% 29.68 in 5.0 mi NNE 18.4 mph 25.3 mph N/A   Overcast
6:15 AM 35.6 °F 26.2 °F 30.2 °F 81% 29.69 in 5.0 mi NNE 15.0 mph 24.2 mph 0.01 in   Overcast
6:35 AM 35.6 °F 27.5 °F 30.2 °F 81% 29.69 in 5.0 mi NNE 11.5 mph 20.7 mph 0.01 in   Overcast
6:55 AM 35.6 °F 27.1 °F 30.2 °F 81% 29.71 in 6.0 mi NNE 12.7 mph - 0.01 in   Overcast
7:15 AM 35.6 °F 27.1 °F 30.2 °F 81% 29.72 in 7.0 mi North 12.7 mph 21.9 mph N/A   Overcast
7:35 AM 35.6 °F 26.6 °F 30.2 °F 81% 29.73 in 4.0 mi North 13.8 mph 24.2 mph N/A   Overcast
7:55 AM 35.6 °F 28.0 °F 30.2 °F 81% 29.74 in 5.0 mi NNE 10.4 mph 20.7 mph N/A   Overcast
8:15 AM 35.6 °F 25.5 °F 30.2 °F 81% 29.75 in 9.0 mi NNE 17.3 mph 23.0 mph N/A   Overcast
8:35 AM 35.6 °F 26.6 °F 32.0 °F 87% 29.76 in 8.0 mi NNE 13.8 mph 23.0 mph N/A   Overcast
8:55 AM 35.6 °F 25.9 °F 32.0 °F 87% 29.76 in 4.0 mi North 16.1 mph 21.9 mph N/A   Overcast
9:15 AM 35.6 °F 26.6 °F 32.0 °F 87% 29.77 in 10.0 mi North 13.8 mph 20.7 mph N/A   Overcast
9:35 AM 35.6 °F 26.2 °F 32.0 °F 87% 29.78 in 7.0 mi North 15.0 mph 24.2 mph N/A   Overcast
9:55 AM 37.4 °F 28.2 °F 32.0 °F 81% 29.79 in 10.0 mi NNE 16.1 mph 21.9 mph N/A   Overcast
10:15 AM 37.4 °F 28.2 °F 32.0 °F 81% 29.79 in 5.0 mi NNE 16.1 mph 20.7 mph N/A   Overcast
10:35 AM 37.4 °F 28.9 °F 32.0 °F 81% 29.79 in 5.0 mi North 13.8 mph 19.6 mph N/A   Overcast
10:55 AM 37.4 °F 29.3 °F 32.0 °F 81% 29.79 in 10.0 mi North 12.7 mph 20.7 mph N/A   Overcast
11:15 AM 37.4 °F 29.3 °F 33.8 °F 87% 29.79 in 10.0 mi North 12.7 mph 24.2 mph N/A   Overcast
11:35 AM 39.2 °F 31.6 °F 33.8 °F 81% 29.79 in 10.0 mi North 12.7 mph 21.9 mph N/A   Overcast
11:55 AM 37.4 °F 28.2 °F 32.0 °F 81% 29.79 in 10.0 mi North 16.1 mph 21.9 mph N/A   Overcast
12:15 PM 39.2 °F 33.0 °F 33.8 °F 81% 29.80 in 10.0 mi NNE 9.2 mph - 0.01 in   Overcast
12:35 PM 39.2 °F 29.8 °F 33.8 °F 81% 29.81 in 10.0 mi NNE 18.4 mph 21.9 mph 0.01 in   Mostly Cloudy
12:55 PM 37.4 °F 30.8 °F 32.0 °F 81% 29.81 in 10.0 mi North 9.2 mph 21.9 mph 0.01 in   Mostly Cloudy
1:15 PM 37.4 °F 28.2 °F 32.0 °F 81% 29.82 in 10.0 mi NNE 16.1 mph 23.0 mph N/A   Overcast
1:35 PM 37.4 °F 28.9 °F 30.2 °F 75% 29.82 in 10.0 mi North 13.8 mph 25.3 mph N/A   Overcast
1:55 PM 37.4 °F 29.8 °F 32.0 °F 81% 29.82 in 9.0 mi North 11.5 mph 19.6 mph N/A   Overcast
2:15 PM 35.6 °F 28.6 °F 30.2 °F 81% 29.83 in 9.0 mi North 9.2 mph - 0.01 in   Overcast
2:35 PM 35.6 °F 27.1 °F 32.0 °F 87% 29.84 in 10.0 mi North 12.7 mph 19.6 mph 0.02 in   Overcast
2:55 PM 35.6 °F 27.1 °F 32.0 °F 87% 29.84 in 8.0 mi North 12.7 mph - 0.03 in   Overcast
3:15 PM 35.6 °F 28.0 °F 32.0 °F 87% 29.85 in 5.0 mi North 10.4 mph - 0.01 in   Overcast
3:35 PM 37.4 °F 30.3 °F 33.8 °F 87% 29.85 in 10.0 mi NNE 10.4 mph 17.3 mph 0.01 in   Overcast
3:55 PM 37.4 °F 28.5 °F 32.0 °F 81% 29.86 in 10.0 mi NNE 15.0 mph - 0.01 in   Overcast
4:15 PM 37.4 °F 30.3 °F 33.8 °F 87% 29.87 in 9.0 mi North 10.4 mph 16.1 mph N/A   Overcast
4:35 PM 35.6 °F 29.2 °F 32.0 °F 87% 29.87 in 5.0 mi North 8.1 mph - 0.02 in   Overcast
4:55 PM 37.4 °F 32.1 °F 33.8 °F 87% 29.87 in 10.0 mi NNW 6.9 mph - 0.02 in   Overcast
5:15 PM 37.4 °F 30.8 °F 33.8 °F 87% 29.88 in 10.0 mi North 9.2 mph 17.3 mph N/A   Overcast
5:35 PM 39.2 °F 33.0 °F 33.8 °F 81% 29.88 in 10.0 mi North 9.2 mph - N/A   Overcast
5:55 PM 39.2 °F 32.5 °F 33.8 °F 81% 29.89 in 10.0 mi North 10.4 mph - N/A   Overcast
6:15 PM 39.2 °F 33.6 °F 33.8 °F 81% 29.90 in 10.0 mi North 8.1 mph - N/A   Overcast
6:35 PM 39.2 °F 33.6 °F 33.8 °F 81% 29.90 in 10.0 mi North 8.1 mph - N/A   Overcast
6:55 PM 39.2 °F 32.0 °F 33.8 °F 81% 29.91 in 10.0 mi North 11.5 mph 16.1 mph N/A   Overcast
7:15 PM 39.2 °F 33.6 °F 32.0 °F 75% 29.92 in 10.0 mi North 8.1 mph - N/A   Overcast
7:35 PM 39.2 °F 32.5 °F 32.0 °F 75% 29.92 in 10.0 mi North 10.4 mph - N/A   Overcast
7:55 PM 39.2 °F 32.5 °F 32.0 °F 75% 29.93 in 10.0 mi North 10.4 mph 16.1 mph N/A   Overcast
8:15 PM 39.2 °F 32.0 °F 30.2 °F 70% 29.94 in 10.0 mi North 11.5 mph 18.4 mph N/A   Overcast
8:35 PM 39.2 °F 31.6 °F 30.2 °F 70% 29.94 in 10.0 mi North 12.7 mph 20.7 mph N/A   Overcast
8:55 PM 39.2 °F 31.6 °F 30.2 °F 70% 29.95 in 10.0 mi North 12.7 mph 18.4 mph N/A   Overcast
9:15 PM 39.2 °F 32.0 °F 30.2 °F 70% 29.95 in 10.0 mi North 11.5 mph 19.6 mph N/A   Overcast
9:35 PM 39.2 °F 32.5 °F 30.2 °F 70% 29.96 in 10.0 mi North 10.4 mph 16.1 mph N/A   Overcast
9:55 PM 39.2 °F 32.5 °F 30.2 °F 70% 29.96 in 10.0 mi North 10.4 mph 18.4 mph N/A   Overcast
10:15 PM 39.2 °F 32.5 °F 30.2 °F 70% 29.96 in 10.0 mi North 10.4 mph 16.1 mph N/A   Overcast
10:35 PM 39.2 °F 31.6 °F 30.2 °F 70% 29.96 in 10.0 mi North 12.7 mph 17.3 mph N/A   Overcast
10:55 PM 39.2 °F 31.6 °F 28.4 °F 65% 29.96 in 10.0 mi North 12.7 mph 18.4 mph N/A   Overcast
11:15 PM 39.2 °F 31.2 °F 28.4 °F 65% 29.97 in 10.0 mi North 13.8 mph 20.7 mph N/A   Overcast
11:35 PM 39.2 °F 32.0 °F 28.4 °F 65% 29.97 in 10.0 mi North 11.5 mph 19.6 mph N/A   Overcast
11:55 PM 39.2 °F 32.0 °F 28.4 °F 65% 29.98 in 10.0 mi NNW 11.5 mph 18.4 mph N/A   Overcast